YO8SDE-8 Weather Reports


time (UTC)temp
F
wind
direction
speed
knots
gust
knots
rain 1hr
in
rain 24hr
in
rain mn
in
humidity
%
barometer
mb
20260905022609 61 247 0.0 0.0 0.00 0.00 0.00 81 1000.8
20260905022109 60 247 0.0 0.0 0.00 0.00 0.00 82 1000.8
20260905021609 60 247 0.0 0.0 0.00 0.00 0.00 81 1000.8
20260905021109 59 247 0.0 0.0 0.00 0.00 0.00 80 1000.8
20260905020609 59 247 0.0 0.0 0.00 0.00 0.00 79 1000.8
20260905020109 59 247 0.0 0.0 0.00 0.00 0.00 79 1000.9
20260905015609 59 247 0.0 0.0 0.00 0.00 0.00 77 1001.0
20260905015109 58 247 0.0 0.0 0.00 0.00 0.00 77 1000.9
20260905014609 58 247 0.0 0.0 0.00 0.00 0.00 77 1000.9
20260905014109 59 247 0.0 0.0 0.00 0.00 0.00 77 1000.9
20260905013609 58 225 0.0 0.0 0.00 0.00 0.00 75 1000.8
20260905013109 58 225 0.0 0.0 0.00 0.00 0.00 75 1000.8
20260905012609 58 225 0.0 0.0 0.00 0.00 0.00 75 1000.8
20260905012109 58 225 0.0 0.0 0.00 0.00 0.00 75 1000.9
20260905011609 58 225 0.0 0.0 0.00 0.00 0.00 75 1000.8
20260905011109 58 225 0.0 0.0 0.00 0.00 0.00 74 1000.9
20260905010609 57 225 0.0 0.0 0.00 0.00 0.00 74 1000.8
20260905010109 57 225 0.0 0.0 0.00 0.00 0.00 73 1000.9
20260905005609 57 225 0.0 0.0 0.00 0.00 0.00 71 1000.8
20260905005109 57 225 0.0 0.0 0.00 0.00 0.00 71 1000.9
20260905004609 57 225 0.0 0.0 0.00 0.00 0.00 71 1000.9
20260905004109 56 225 0.0 0.0 0.00 0.00 0.00 69 1001.0
20260905003609 57 225 0.0 0.0 0.00 0.00 0.00 69 1000.9
20260905003109 56 225 0.0 0.0 0.00 0.00 0.00 65 1001.0
20260905002609 57 225 0.0 0.0 0.00 0.00 0.00 65 1001.1
20260905002109 58 225 0.0 0.0 0.00 0.00 0.00 65 1001.1
20260905001609 60 225 0.0 0.0 0.00 0.00 0.00 65 1001.0
20260905001109 61 225 0.0 0.0 0.00 0.00 0.00 65 1001.1
20260905000609 62 225 0.0 0.0 0.00 0.00 0.00 65 1001.1
20260905000109 62 225 0.0 0.0 0.00 0.00 0.00 65 1001.1
20260904235609 63 225 0.0 0.0 0.00 0.00 0.00 65 1001.1
20260904235109 64 225 0.0 0.0 0.00 0.00 0.00 65 1001.2
20260904234609 64 225 0.0 0.0 0.00 0.00 0.00 65 1001.2
20260904234109 65 202 0.0 0.0 0.00 0.00 0.00 65 1001.3
20260904233609 66 225 0.0 0.0 0.00 0.00 0.00 65 1001.3
20260904233109 66 225 0.0 0.0 0.00 0.00 0.00 65 1001.3
20260904232609 66 225 0.0 0.0 0.00 0.00 0.00 65 1001.4
20260904232109 65 225 0.0 0.0 0.00 0.00 0.00 65 1001.3
20260904231609 65 247 0.0 0.0 0.00 0.00 0.00 65 1001.2
20260904231109 64 225 0.0 0.0 0.00 0.00 0.00 65 1001.3
20260904230609 64 225 0.0 0.0 0.00 0.00 0.00 65 1001.3
20260904230109 64 225 0.0 0.0 0.00 0.00 0.00 65 1001.3
20260904225609 64 247 0.0 0.0 0.00 0.00 0.00 65 1001.3
20260904225109 64 247 0.0 0.0 0.00 0.00 0.00 65 1001.4
20260904224609 63 202 0.0 0.0 0.00 0.00 0.00 65 1001.4
20260904224109 63 202 0.0 0.0 0.00 0.00 0.00 64 1001.3
20260904223609 62 225 0.0 0.0 0.00 0.00 0.00 64 1001.5
20260904223109 62 225 0.0 0.0 0.00 0.00 0.00 64 1001.5
20260904222609 61 225 0.0 0.0 0.00 0.00 0.00 64 1001.5
20260904222109 62 225 0.0 0.0 0.00 0.00 0.00 64 1001.7
20260904221609 62 225 0.0 0.0 0.00 0.00 0.00 64 1001.8
20260904221109 62 225 0.0 0.0 0.00 0.00 0.00 64 1001.8
20260904220609 62 225 0.0 0.0 0.00 0.00 0.00 64 1001.8
20260904220109 62 225 0.0 0.0 0.00 0.00 0.00 64 1001.7
20260904215609 62 225 0.0 0.0 0.00 0.00 0.00 64 1001.8
20260904215109 61 225 0.0 0.0 0.00 0.00 0.00 64 1001.8
20260904214609 61 225 0.0 0.0 0.00 0.00 0.00 64 1001.9
20260904214109 61 225 0.0 0.0 0.00 0.00 0.00 64 1001.8
20260904213609 60 225 0.0 0.0 0.00 0.00 0.00 64 1001.9
20260904213109 60 225 0.0 0.0 0.00 0.00 0.00 64 1001.8
20260904212609 60 225 0.0 0.0 0.00 0.00 0.00 64 1001.8
20260904212109 60 225 0.0 0.0 0.00 0.00 0.00 64 1001.8
20260904211609 60 225 0.0 0.0 0.00 0.00 0.00 65 1001.8
20260904211109 60 225 0.0 0.0 0.00 0.00 0.00 64 1001.8
20260904210609 60 225 0.0 0.0 0.00 0.00 0.00 65 1001.9
20260904210109 60 225 0.0 0.0 0.00 0.00 0.00 65 1001.9
20260904205609 61 225 0.0 0.0 0.00 0.00 0.00 65 1001.8
20260904205109 62 225 0.0 0.0 0.00 0.00 0.00 65 1001.9
20260904204609 63 225 0.0 0.0 0.00 0.00 0.00 65 1001.8
20260904204109 63 225 0.0 0.0 0.00 0.00 0.00 65 1001.8
20260904203609 64 225 0.0 0.0 0.00 0.00 0.00 66 1002.0
20260904203109 65 225 0.0 0.0 0.00 0.00 0.00 66 1002.0
20260904202609 66 225 0.0 0.0 0.00 0.00 0.00 66 1002.0
20260904202109 67 225 0.0 0.0 0.00 0.00 0.00 66 1001.9
20260904201609 67 225 0.0 0.0 0.00 0.00 0.00 66 1001.9
20260904201109 67 225 0.0 0.0 0.00 0.00 0.00 66 1001.9
20260904200609 67 225 0.0 0.0 0.00 0.00 0.00 66 1001.9
20260904200109 67 225 0.0 0.0 0.00 0.00 0.00 66 1001.9
20260904195609 67 225 0.0 0.0 0.00 0.00 0.00 67 1001.8
20260904195109 67 225 0.0 0.0 0.00 0.00 0.00 66 1001.9
20260904194609 68 225 0.0 0.0 0.00 0.00 0.00 66 1002.0
20260904194109 68 225 0.0 0.0 0.00 0.00 0.00 66 1001.9
20260904193609 69 225 0.0 0.0 0.00 0.00 0.00 66 1002.0
20260904193109 70 225 0.0 0.0 0.00 0.00 0.00 66 1002.2
20260904192609 70 225 0.0 0.0 0.00 0.00 0.00 65 1002.2
20260904192109 70 247 0.0 0.0 0.00 0.00 0.00 65 1002.1
20260904191609 71 225 0.0 0.0 0.00 0.00 0.00 65 1002.2
20260904191109 71 225 0.0 0.0 0.00 0.00 0.00 65 1002.2
20260904190609 71 202 0.0 0.0 0.00 0.00 0.00 65 1002.1
20260904190109 71 202 0.0 0.0 0.00 0.00 0.00 65 1002.1
20260904185609 71 225 0.0 0.0 0.00 0.00 0.00 65 1002.0
20260904185109 70 225 0.0 0.0 0.00 0.00 0.00 65 1002.1
20260904184609 70 225 0.0 0.0 0.00 0.00 0.00 65 1002.1
20260904184109 70 225 0.0 0.0 0.00 0.00 0.00 65 1002.0
20260904183609 70 202 0.0 0.0 0.00 0.00 0.00 65 1002.0
20260904183109 70 202 0.0 0.0 0.00 0.00 0.00 65 1002.0
20260904182609 70 202 0.0 0.0 0.00 0.00 0.00 64 1002.0
20260904182109 70 180 0.0 0.0 0.00 0.00 0.00 64 1001.9
20260904181609 70 180 0.0 0.0 0.00 0.00 0.00 63 1001.9
20260904181109 71 180 0.0 0.0 0.00 0.00 0.00 62 1002.0
20260904180609 71 180 0.0 0.0 0.00 0.00 0.00 61 1001.9
20260904180109 71 180 0.0 0.0 0.00 0.00 0.00 61 1001.8
20260904175609 72 180 0.0 0.0 0.00 0.00 0.00 60 1001.9
20260904175109 72 180 0.0 0.0 0.00 0.00 0.00 59 1001.9
20260904174609 73 180 0.0 0.0 0.00 0.00 0.00 58 1002.1
20260904174109 73 180 0.0 0.0 0.00 0.00 0.00 57 1002.1
20260904173609 73 225 0.0 0.0 0.00 0.00 0.00 57 1002.1
20260904173109 74 225 0.0 0.0 0.00 0.00 0.00 57 1002.0
20260904172609 74 225 0.0 0.0 0.00 0.00 0.00 56 1002.0
20260904172109 74 225 0.0 0.0 0.00 0.00 0.00 55 1001.9
20260904171609 74 225 0.0 0.0 0.00 0.00 0.00 54 1001.9
20260904171109 75 225 0.0 0.0 0.00 0.00 0.00 53 1001.9
20260904170609 75 225 0.0 0.0 0.00 0.00 0.00 53 1001.9
20260904170109 75 225 0.0 0.0 0.00 0.00 0.00 53 1001.8
20260904165609 75 135 0.0 0.0 0.00 0.00 0.00 51 1001.8
20260904165109 76 135 0.0 0.0 0.00 0.00 0.00 51 1001.6
20260904164609 76 135 0.0 0.0 0.00 0.00 0.00 50 1001.5
20260904164109 77 135 0.0 0.0 0.00 0.00 0.00 50 1001.6
20260904163609 77 135 0.0 0.0 0.00 0.00 0.00 49 1001.5
20260904163109 77 135 0.0 0.0 0.00 0.00 0.00 49 1001.4
20260904162610 77 135 0.0 0.0 0.00 0.00 0.00 48 1001.4
20260904162109 78 135 0.0 0.0 0.00 0.00 0.00 48 1001.4
20260904161609 78 135 0.0 0.0 0.00 0.00 0.00 47 1001.5
20260904161109 78 135 0.0 0.0 0.00 0.00 0.00 46 1001.6
20260904160609 79 135 0.0 0.0 0.00 0.00 0.00 46 1001.6
20260904160109 79 135 0.0 0.0 0.00 0.00 0.00 44 1001.7
20260904155609 80 135 0.0 0.0 0.00 0.00 0.00 43 1001.7
20260904155109 80 135 0.0 0.0 0.00 0.00 0.00 42 1001.8
20260904154609 81 135 0.0 0.0 0.00 0.00 0.00 42 1001.8
20260904154109 82 135 0.0 0.0 0.00 0.00 0.00 41 1001.8
20260904153609 82 135 0.0 0.0 0.00 0.00 0.00 40 1001.7
20260904153109 84 135 0.0 0.0 0.00 0.00 0.00 39 1001.6
20260904152609 84 135 0.0 0.0 0.00 0.00 0.00 38 1001.8
20260904152109 85 135 0.0 0.0 0.00 0.00 0.00 38 1001.7
20260904151609 86 135 0.0 0.0 0.00 0.00 0.00 36 1001.8
20260904151109 88 135 0.0 0.0 0.00 0.00 0.00 35 1001.7
20260904150609 89 135 0.0 0.0 0.00 0.00 0.00 35 1001.7
20260904150109 89 135 0.0 0.0 0.00 0.00 0.00 36 1001.6
20260904145609 89 135 0.0 0.0 0.00 0.00 0.00 36 1001.5
20260904145109 88 157 0.0 0.0 0.00 0.00 0.00 37 1001.5
20260904144609 87 157 0.0 0.0 0.00 0.00 0.00 37 1001.5
20260904144109 86 157 0.0 0.0 0.00 0.00 0.00 37 1001.5
20260904143609 86 157 0.0 0.0 0.00 0.00 0.00 36 1001.7
20260904143110 87 157 0.0 0.0 0.00 0.00 0.00 35 1001.7
20260904142609 89 135 0.0 0.0 0.00 0.00 0.00 33 1001.7
20260904142109 91 157 0.0 0.0 0.00 0.00 0.00 32 1001.7
20260904141609 93 202 0.0 0.0 0.00 0.00 0.00 31 1001.7
20260904141109 94 135 0.0 0.0 0.00 0.00 0.00 31 1001.8
20260904140609 95 135 0.0 0.0 0.00 0.00 0.00 31 1001.8
20260904140109 95 135 0.0 0.0 0.00 0.00 0.00 31 1002.0
20260904135609 96 112 0.0 0.0 0.00 0.00 0.00 31 1001.9
20260904135109 97 180 0.0 0.0 0.00 0.00 0.00 31 1002.0
20260904134609 97 247 0.0 0.0 0.00 0.00 0.00 32 1002.1
20260904134109 95 225 0.0 0.0 0.00 0.00 0.00 33 1002.2
20260904133609 93 135 0.0 0.0 0.00 0.00 0.00 35 1002.1
20260904133109 91 22 0.0 0.0 0.00 0.00 0.00 35 1002.0
20260904132609 89 247 0.0 0.0 0.00 0.00 0.00 37 1002.2
20260904132109 86 225 0.0 0.0 0.00 0.00 0.00 39 1002.1
20260904131609 85 202 0.0 0.0 0.00 0.00 0.00 39 1002.2
20260904131109 85 157 0.0 0.0 0.00 0.00 0.00 38 1002.1
20260904130609 85 247 0.0 0.0 0.00 0.00 0.00 38 1002.1
20260904130109 85 247 0.0 0.0 0.00 0.00 0.00 37 1002.0
20260904125609 85 270 0.0 0.0 0.00 0.00 0.00 37 1001.9
20260904125109 86 225 0.0 0.0 0.00 0.00 0.00 37 1002.0
20260904124609 85 247 0.0 0.0 0.00 0.00 0.00 37 1002.0
20260904124109 85 315 0.0 0.0 0.00 0.00 0.00 37 1002.0
20260904123609 86 270 0.0 0.0 0.00 0.00 0.00 36 1002.1
20260904123109 87 292 0.0 0.0 0.00 0.00 0.00 35 1002.2
20260904122609 89 270 0.0 0.0 0.00 0.00 0.00 33 1002.2
20260904122109 92 270 0.0 0.0 0.00 0.00 0.00 31 1002.1
20260904121610 93 292 0.0 0.0 0.00 0.00 0.00 31 1002.1
20260904121110 94 112 0.0 0.0 0.00 0.00 0.00 30 1002.1
20260904120609 93 135 0.0 0.0 0.00 0.00 0.00 30 1002.2
20260904120109 95 180 0.0 0.0 0.00 0.00 0.00 27 1002.3
20260904115609 99 270 0.0 0.0 0.00 0.00 0.00 26 1002.5
20260904115109 99 247 0.0 0.0 0.00 0.00 0.00 27 1002.6
20260904114610 99 157 0.0 0.0 0.00 0.00 0.00 28 1002.7
20260904114110 101 225 0.0 0.0 0.00 0.00 0.00 26 1002.6
20260904113609 100 180 0.0 0.0 0.00 0.00 0.00 28 1002.8
20260904113110 99 67 0.0 0.0 0.00 0.00 0.00 29 1002.8
20260904112610 98 270 0.0 0.0 0.00 0.00 0.00 27 1002.9
20260904112110 99 270 0.0 0.0 0.00 0.00 0.00 26 1002.8
20260904111609 98 0 0.0 0.0 0.00 0.00 0.00 29 1002.9
20260904111110 96 337 0.0 0.0 0.00 0.00 0.00 30 1003.0
20260904110610 95 292 0.0 0.0 0.00 0.00 0.00 29 1003.0
20260904110110 96 247 0.0 0.0 0.00 0.00 0.00 30 1003.0
20260904105610 95 112 0.0 0.0 0.00 0.00 0.00 30 1003.1
20260904105110 96 270 0.0 0.0 0.00 0.00 0.00 28 1003.2
20260904104610 95 180 0.0 0.0 0.00 0.00 0.00 30 1003.1
20260904104110 95 225 0.0 0.0 0.00 0.00 0.00 28 1003.3
20260904103610 98 247 0.0 0.0 0.00 0.00 0.00 30 1003.3
20260904103110 97 225 0.0 0.0 0.00 0.00 0.00 30 1003.3
20260904102610 97 247 0.0 0.0 0.00 0.00 0.00 30 1003.3
20260904102110 96 270 0.0 0.0 0.00 0.00 0.00 31 1003.4
20260904101610 94 247 0.0 0.0 0.00 0.00 0.00 32 1003.3
20260904101110 96 270 0.0 0.0 0.00 0.00 0.00 31 1003.4
20260904100610 96 112 0.0 0.0 0.00 0.00 0.00 33 1003.4
20260904100110 95 225 0.0 0.0 0.00 0.00 0.00 33 1003.5
20260904095610 96 247 0.0 0.0 0.00 0.00 0.00 32 1003.4
20260904095110 95 202 0.0 0.0 0.00 0.00 0.00 33 1003.5
20260904094610 95 247 0.0 0.0 0.00 0.00 0.00 33 1003.5
20260904094110 96 157 0.0 0.0 0.00 0.00 0.00 33 1003.6
20260904093610 96 135 0.0 0.0 0.00 0.00 0.00 34 1003.7
20260904093110 94 202 0.0 0.0 0.00 0.00 0.00 35 1003.7
20260904092610 93 157 0.0 0.0 0.00 0.00 0.00 38 1003.8
20260904092110 91 135 0.0 0.0 0.00 0.00 0.00 38 1003.9
20260904091610 90 157 0.0 0.0 0.00 0.00 0.00 39 1004.0
20260904091110 91 135 0.0 0.0 0.00 0.00 0.00 37 1004.1
20260904090610 92 112 0.0 0.0 0.00 0.00 0.00 39 1003.9
20260904090110 91 135 0.0 0.0 0.00 0.00 0.00 38 1004.1
20260904085610 92 112 0.0 0.0 0.00 0.00 0.00 38 1004.1
20260904085110 93 135 0.0 0.0 0.00 0.00 0.00 38 1004.1
20260904084610 91 135 0.0 0.0 0.00 0.00 0.00 40 1004.1
20260904084110 89 157 0.0 0.0 0.00 0.00 0.00 41 1004.3
20260904083610 89 112 0.0 0.0 0.00 0.00 0.00 41 1004.3
20260904083110 88 112 0.0 0.0 0.00 0.00 0.00 42 1004.4
20260904082610 89 135 0.0 0.0 0.00 0.00 0.00 42 1004.4
20260904082110 89 135 0.0 0.0 0.00 0.00 0.00 44 1004.3
20260904081610 88 202 0.0 0.0 0.00 0.00 0.00 46 1004.3
20260904081110 87 157 0.0 0.0 0.00 0.00 0.00 47 1004.2
20260904080610 88 45 0.0 0.0 0.00 0.00 0.00 47 1004.4
20260904080110 87 135 0.0 0.0 0.00 0.00 0.00 49 1004.4
20260904075610 86 112 0.0 0.0 0.00 0.00 0.00 50 1004.5
20260904075110 86 135 0.0 0.0 0.00 0.00 0.00 49 1004.5
20260904074610 86 247 0.0 0.0 0.00 0.00 0.00 51 1004.5
20260904074110 84 202 0.0 0.0 0.00 0.00 0.00 53 1004.6
20260904073610 82 202 0.0 0.0 0.00 0.00 0.00 55 1004.6
20260904073110 80 270 0.0 0.0 0.00 0.00 0.00 55 1004.7
20260904072610 79 270 0.0 0.0 0.00 0.00 0.00 58 1004.7
20260904072110 78 292 0.0 0.0 0.00 0.00 0.00 59 1004.7
20260904071610 78 270 0.0 0.0 0.00 0.00 0.00 59 1004.6
20260904071110 79 337 0.0 0.0 0.00 0.00 0.00 60 1004.5
20260904070610 80 67 0.0 0.0 0.00 0.00 0.00 61 1004.5
20260904070110 78 315 0.0 0.0 0.00 0.00 0.00 63 1004.6
20260904065610 77 315 0.0 0.0 0.00 0.00 0.00 64 1004.5
20260904065110 78 67 0.0 0.0 0.00 0.00 0.00 64 1004.5
20260904064610 78 292 0.0 0.0 0.00 0.00 0.00 64 1004.5
20260904064110 74 315 0.0 0.0 0.00 0.00 0.00 64 1004.6
20260904063610 71 225 0.0 0.0 0.00 0.00 0.00 64 1004.6
20260904063110 70 225 0.0 0.0 0.00 0.00 0.00 65 1004.6
20260904062610 71 135 0.0 0.0 0.00 0.00 0.00 71 1004.5
20260904062110 72 135 0.0 0.0 0.00 0.00 0.00 76 1004.4
20260904061610 71 135 0.0 0.0 0.00 0.00 0.00 77 1004.4
20260904061110 72 225 0.0 0.0 0.00 0.00 0.00 80 1004.5
20260904060610 71 225 0.0 0.0 0.00 0.00 0.00 82 1004.5
20260904060110 70 225 0.0 0.0 0.00 0.00 0.00 83 1004.5
20260904055610 69 247 0.0 0.0 0.00 0.00 0.00 85 1004.6
20260904055110 68 247 0.0 0.0 0.00 0.00 0.00 86 1004.5
20260904054610 67 247 0.0 0.0 0.00 0.00 0.00 87 1004.6
20260904054110 66 247 0.0 0.0 0.00 0.00 0.00 88 1004.6
20260904053610 66 270 0.0 0.0 0.00 0.00 0.00 89 1004.7
20260904053110 65 270 0.0 0.0 0.00 0.00 0.00 90 1004.7
20260904052610 64 270 0.0 0.0 0.00 0.00 0.00 91 1004.6
20260904052110 64 247 0.0 0.0 0.00 0.00 0.00 92 1004.7
20260904051610 63 270 0.0 0.0 0.00 0.00 0.00 92 1004.7
20260904051110 63 247 0.0 0.0 0.00 0.00 0.00 93 1004.7
20260904050610 63 270 0.0 0.0 0.00 0.00 0.00 93 1004.8
20260904050110 62 270 0.0 0.0 0.00 0.00 0.00 93 1004.8
20260904045610 62 270 0.0 0.0 0.00 0.00 0.00 94 1004.8
20260904045110 62 292 0.0 0.0 0.00 0.00 0.00 94 1004.8
20260904044610 61 292 0.0 0.0 0.00 0.00 0.00 93 1004.8
20260904044110 61 292 0.0 0.0 0.00 0.00 0.00 93 1004.7
20260904043610 60 292 0.0 0.0 0.00 0.00 0.00 93 1004.5
20260904043110 60 292 0.0 0.0 0.00 0.00 0.00 94 1004.6
20260904042610 59 292 0.0 0.0 0.00 0.00 0.00 94 1004.5
20260904042110 59 292 0.0 0.0 0.00 0.00 0.00 94 1004.5
20260904041610 58 292 0.0 0.0 0.00 0.00 0.00 94 1004.5
20260904041110 57 292 0.0 0.0 0.00 0.00 0.00 94 1004.5
20260904040610 57 292 0.0 0.0 0.00 0.00 0.00 93 1004.5
20260904040110 57 292 0.0 0.0 0.00 0.00 0.00 93 1004.5
20260904035610 57 292 0.0 0.0 0.00 0.00 0.00 93 1004.5
20260904035110 57 292 0.0 0.0 0.00 0.00 0.00 93 1004.5
20260904034610 57 292 0.0 0.0 0.00 0.00 0.00 93 1004.5
20260904034110 57 292 0.0 0.0 0.00 0.00 0.00 93 1004.6
20260904033610 57 292 0.0 0.0 0.00 0.00 0.00 93 1004.7
20260904033110 57 292 0.0 0.0 0.00 0.00 0.00 93 1004.5
20260904032610 57 292 0.0 0.0 0.00 0.00 0.00 93 1004.4
20260904032110 57 292 0.0 0.0 0.00 0.00 0.00 93 1004.6
20260904031610 57 292 0.0 0.0 0.00 0.00 0.00 93 1004.4
20260904031110 57 292 0.0 0.0 0.00 0.00 0.00 93 1004.6
20260904030610 58 292 0.0 0.0 0.00 0.00 0.00 93 1004.7
20260904030110 58 292 0.0 0.0 0.00 0.00 0.00 93 1004.7
20260904025610 58 292 0.0 0.0 0.00 0.00 0.00 93 1004.6
20260904025110 58 292 0.0 0.0 0.00 0.00 0.00 93 1004.6
20260904024610 59 292 0.0 0.0 0.00 0.00 0.00 93 1004.6
20260904024110 59 292 0.0 0.0 0.00 0.00 0.00 93 1004.7
20260904023610 59 292 0.0 0.0 0.00 0.00 0.00 93 1004.6
20260904023110 59 292 0.0 0.0 0.00 0.00 0.00 93 1004.5